Showing default

IRIDE FM3, 66697

Orbit data source: Space-Track

IRIDE FM3, 66697 is an Italian payload satellite in SSO that was launched on Fri, 28 Nov 2025 UTC via an FALCON 9 launch vehicle from the Air Force Western Test Range (AFWTR). Payload-class satellites include a variety of spacecraft equipped with specific instruments for various scientific and technological missions. These include communications satellites like Starlink; space stations such as the ISS; scientific satellites like the Hubble; Earth observation satellites from companies like Planet Labs, Umbra, and HawkEye 360; GPS; miniature CubeSats for education and research; and military/defense satellites.

Loading next visibility...
Identifier
66697, 2025-276AH
Orbit
SSO
Country
Flag of ITIT
Related business
Manufacturer
OHB-I
Mission
Operational spacecraft
Bus & Motor
EAGLET, Unknown motor
Mass
25 kg wet, 25 kg dry
Launch date (UTC)
2025-11-28 (2 months ago)
Launch vehicle
FALCON 9
Launch site
Air Force Western Test Range (AFWTR)
Object type
Payload
Rocket body
Debris
Shape & HBR
Unknown shape, 1.0 m
Radar Cross Section
RCS unknown

Expand to show TLE details & history
Last TLE update: 4 hours ago

TLE from 4 hours ago
0 IRIDE FM3
1 66697U 25276AH  26035.17752697  .00010206  00000-0  49164-3 0  9992
2 66697  97.4317 111.0616 0002713  82.4088 277.7455 15.18927015 10238
Epoch: 2026-02-04T04:15Z
TLE epoch observation values (Epoch: 2026-02-04T04:15:38.330Z)
Latitude
0.00004°
Longitude
-87.19596°
Altitude
511.919 km
Speed
7.608 km/s
True Right ascension
07h 24m 14s
True Declination
0° 00' 00"
Sunlit
Object was in full shadow at epoch
Visualization orbit readout
Latitude
Unknown
Longitude
Unknown
Altitude
Unknown
Speed
Unknown
Apparent Right ascension
Unknown
Apparent Declination
Unknown
Sunlit
N/A
Visualization observer readout
Local Sidereal Time
10:13:28
Azimuth
Unknown
Elevation
Unknown
Doppler factor
Unknown
Orbital elements
Apogee altitude
507.918 km
Perigee altitude
504.183 km
Semi-major axis
6,884.188 km
Eccentricity
0.00027
Inclination
97.4317°
RAAN
111.0616°
Arg. of periapsis
82.4088°
True anomaly
277.71469°
Mean anomaly
277.7455°
Eccentric anomaly
277.7301°
Mean motion
3.79983 °/min
Orbital period
94.74 mins
BSTAR
0.00049164
Loading maneuver chart data...
Computing Atmospheric mass density...
Loading historical data...
Loading historical data...
Loading historical data...
Loading historical data...
Loading historical data...
Loading historical data...
Loading historical data...

Documentation

Showing up to 5 results
|